MIDAS 6 (FTV 1169)

Satellite information

Favourite Embed

Satellite Type and Status

PAYLOADIN ORBIT

Key statistics

Satellite MIDAS 6 (FTV 1169) at a glance.

Uptime

22765

Days in orbit

Revolutions

≈ 8.7

Per day

Orbit

MEO

Medium Earth Orbit

Inclination

87.3

Latest

Satellite identification and parameters

Extended collection of information and parameters for MIDAS 6 (FTV 1169).

Object identification

Identified? True

Debris? False

Object name: MIDAS 6 (FTV 1169)

International designator: 1963-014A

Object number (NORAD): 574

Object ID (CCSDS): 574

Country: UNITED STATES OF AMERICA (US)

Current information (Y/N): Y

RCS size: LARGE

Orbital parameters

Period: 166.421 minutes

Inclination: 87.333 deg

SMA: 10022.252 km

Apoapsis: 3675.913 km

Periapsis: 3612.322 km

RAAN: 222.8878 deg

Eccentricy: 0.00317249

Argument of periapsis: 41.7548 deg

Mean anomaly: 318.572 deg

Mean motion: 8.65276229 rev/day

Mean motion (dot): 0.00000026 rev/day2

B* drag term: 0.010664658 1/REarth

Two-line elements (TLE)

Creation date: Sept. 4, 2025, 4:29 a.m.

Reference frame: TEME

Reference center: EARTH

Epoch: Sept. 3, 2025, 8:58 a.m. UTC

TLE line 0: 0 MIDAS 6 (FTV 1169)

TLE line 1: 1 00574U 63014A 25246.37427932 .00000026 00000-0 10665-1 0 9993

TLE line 2: 2 00574 87.3330 222.8878 0031725 41.7548 318.5720 8.65276229192977

Live tracking on map

Real-time ground track for satellite MIDAS 6 (FTV 1169).

In-orbit conjunctions

There are no conjunctions computed for MIDAS 6 (FTV 1169), at the moment. Check back to stay up to date, as we update our databases every day.

Go to all conjunctions

Associated space launch

MIDAS Series 3 (Military Defense Alarm System) early warning satellite.

MIDAS 6 (FTV 1169) was lifted into orbit during the mission ‘Atlas Agena B | Midas 7’, on board a Atlas Agena B space rocket.

The launch took place on May 9, 1963, 8:06 p.m. from Space Launch Complex 3E.

For more information about the launch, click the button.

Launch to space Atlas Agena B | Midas 7
Atlas Agena B | Midas 7

Agency: N/A

Status: Launch Successful

Launch date: May 9, 1963, 8:06 p.m. UTC

Rocket: Atlas Agena B

Launch pad: Space Launch Complex 3E

Location: Vandenberg SFB, CA, USA

...

Latest news about this satellite

There are no fresh news available about this satellite. Check back as we update our databases every day.


Newsletter sign-up

Weekly statistics, charts and insights to help you stay on top of the space industry.